�N����,����,�g�[���i���ԁj���x,�g�[�����x,��g�[���i���ցj���x,����
 2004/04/01, 0:00,18.6,52,15,15.3
 2004/04/01, 0:15,18.3,52,14.9,15.3
 2004/04/01, 0:30,18.4,55,14.9,15.3
 2004/04/01, 0:45,18.3,55,14.7,15.3
 2004/04/01, 1:00,18.3,56,14.5,15.3
 2004/04/01, 1:15,18.2,56,14.4,15.3
 2004/04/01, 1:30,18.2,56,14.3,15.3
 2004/04/01, 1:45,18.2,56,14.2,15.3
 2004/04/01, 2:00,18.2,56,14.1,15.2
 2004/04/01, 2:15,18.3,56,14,15.2
 2004/04/01, 2:30,18.2,56,13.9,15.2
 2004/04/01, 2:45,18,56,13.8,15.2
 2004/04/01, 3:00,17.6,54,13.7,15.1
 2004/04/01, 3:15,16.5,51,13.7,15.1
 2004/04/01, 3:30,15.9,51,13.7,15
 2004/04/01, 3:45,15.3,52,13.6,15
 2004/04/01, 4:00,14.9,52,13.6,14.9
 2004/04/01, 4:15,14.6,52,13.5,14.9
 2004/04/01, 4:30,14.3,53,13.3,14.9
 2004/04/01, 4:45,14.2,53,13.3,14.8
 2004/04/01, 5:00,13.9,53,13.2,14.8
 2004/04/01, 5:15,13.7,54,13,14.7
 2004/04/01, 5:30,13.6,54,12.9,14.7
 2004/04/01, 5:45,13.3,54,12.8,14.6
 2004/04/01, 6:00,13.2,55,12.7,14.6
 2004/04/01, 6:15,13,55,12.6,14.5
 2004/04/01, 6:30,12.9,55,12.5,14.5
 2004/04/01, 6:45,12.8,55,12.5,14.4
 2004/04/01, 7:00,12.7,55,12.5,14.4
 2004/04/01, 7:15,12.7,56,12.5,14.3
 2004/04/01, 7:30,12.6,56,12.6,14.3
 2004/04/01, 7:45,12.7,55,12.5,14.2
 2004/04/01, 8:00,12.7,55,12.6,14.2
 2004/04/01, 8:15,12.7,55,12.7,14.2
 2004/04/01, 8:30,12.9,55,12.7,14.1
 2004/04/01, 8:45,13.1,55,12.7,14.1
 2004/04/01, 9:00,13.5,54,12.8,14
 2004/04/01, 9:15,14.7,52,12.9,12.6
 2004/04/01, 9:30,17,52,13,12.6
 2004/04/01, 9:45,18,50,13,12.6
 2004/04/01,10:00,18.6,50,13.2,12.7
 2004/04/01,10:15,19.1,49,13.3,12.7
 2004/04/01,10:30,19.5,48,13.5,12.7
 2004/04/01,10:45,19.7,47,13.6,12.7
 2004/04/01,11:00,19.6,46,13.8,12.8
 2004/04/01,11:15,19.8,48,14,12.8
 2004/04/01,11:30,20.2,51,14.5,12.8
 2004/04/01,11:45,20.4,51,14.5,12.8
 2004/04/01,12:00,20.7,50,14.7,13
 2004/04/01,12:15,20.8,50,15,13
 2004/04/01,12:30,21.1,49,15.4,13.1
 2004/04/01,12:45,21.3,48,15.7,13.1
 2004/04/01,13:00,21.4,48,16.1,13.1
 2004/04/01,13:15,21.4,48,16.3,13.2
 2004/04/01,13:30,21.6,47,16.7,13.2
 2004/04/01,13:45,21.9,50,17.2,13.3
 2004/04/01,14:00,22,50,17.7,13.3
 2004/04/01,14:15,21.8,50,18.2,13.4
 2004/04/01,14:30,21.6,49,18.7,13.4
 2004/04/01,14:45,21.4,50,19,13.5
 2004/04/01,15:00,21.1,50,19.3,13.6
 2004/04/01,15:15,21,50,19.3,13.6
 2004/04/01,15:30,20.7,46,19.3,13.7
 2004/04/01,15:45,20.1,49,19.2,13.8
 2004/04/01,16:00,19.9,50,19.6,13.9
 2004/04/01,16:15,19.7,51,19.9,13.9
 2004/04/01,16:30,19.5,52,19.9,14
 2004/04/01,16:45,19.4,52,19.7,14.1
 2004/04/01,17:00,19.3,52,19.5,14.2
 2004/04/01,17:15,19.1,53,19.3,14.3
 2004/04/01,17:30,19,50,19,14.3
 2004/04/01,17:45,18.9,52,19,14.4
 2004/04/01,18:00,18.8,50,18.9,14.5
 2004/04/01,18:15,18.7,50,18.7,14.6
 2004/04/01,18:30,18.6,49,18.6,14.7
 2004/04/01,18:45,18.5,50,18.5,14.7
 2004/04/01,19:00,18.5,51,18.4,14.7
 2004/04/01,19:15,18.5,52,18.3,14.8
 2004/04/01,19:30,18.5,51,18.2,14.8
 2004/04/01,19:45,18.4,51,18.1,14.9
 2004/04/01,20:00,18.3,51,18,14.9
 2004/04/01,20:15,18.2,51,17.9,15
 2004/04/01,20:30,18.3,51,17.8,15.1
 2004/04/01,20:45,18.1,51,17.8,15.2
 2004/04/01,21:00,18.4,54,17.7,15.2
 2004/04/01,21:15,18.9,55,17.4,15.3
 2004/04/01,21:30,19.3,56,17.2,15.4
 2004/04/01,21:45,19.6,55,17.2,15.4
 2004/04/01,22:00,19.8,55,17,15.5
 2004/04/01,22:15,20,55,17,15.6
 2004/04/01,22:30,20,55,16.9,15.6
 2004/04/01,22:45,20.2,55,16.9,15.7
 2004/04/01,23:00,20.2,55,16.8,15.7
 2004/04/01,23:15,20.2,56,16.7,15.8
 2004/04/01,23:30,20.4,57,16.6,15.8
 2004/04/01,23:45,20.3,57,16.6,15.9
 2004/04/02, 0:00,20.4,58,16.6,15.9
 2004/04/02, 0:15,20.4,58,16.7,16
 2004/04/02, 0:30,20.4,59,16.6,16
 2004/04/02, 0:45,20.4,61,16.6,16
 2004/04/02, 1:00,20.2,61,16.6,16.1
 2004/04/02, 1:15,20.1,61,16.5,16.1
 2004/04/02, 1:30,20,61,16.6,16.1
 2004/04/02, 1:45,19.9,61,16.5,16.2
 2004/04/02, 2:00,19.6,60,16.4,14.8
 2004/04/02, 2:15,19.3,60,16.4,14.8
 2004/04/02, 2:30,19.1,60,16.3,14.8
 2004/04/02, 2:45,18.9,62,16.3,14.8
 2004/04/02, 3:00,18.4,58,16.3,14.3
 2004/04/02, 3:15,18.1,57,16.3,14.3
 2004/04/02, 3:30,17.8,57,16.4,14.3
 2004/04/02, 3:45,17.6,57,16.3,14.3
 2004/04/02, 4:00,17.4,57,16.3,14.3
 2004/04/02, 4:15,17.3,56,16.2,14.4
 2004/04/02, 4:30,17.1,56,16.1,14.4
 2004/04/02, 4:45,17,56,16.1,14.4
 2004/04/02, 5:00,16.8,57,16,14.5
 2004/04/02, 5:15,16.8,58,16,14.5
 2004/04/02, 5:30,17.3,61,16,14.5
 2004/04/02, 5:45,16.9,60,15.9,14.3
 2004/04/02, 6:00,16.8,59,15.9,14.3
 2004/04/02, 6:15,16.6,59,15.8,14.3
 2004/04/02, 6:30,16.5,59,15.7,14.3
 2004/04/02, 6:45,16.4,59,15.6,14.4
 2004/04/02, 7:00,16.2,59,15.7,14.4
 2004/04/02, 7:15,16.1,59,15.5,14.4
 2004/04/02, 7:30,16,60,15.4,14.4
 2004/04/02, 7:45,16,60,15.4,14.4
 2004/04/02, 8:00,15.9,61,15.6,14.5
 2004/04/02, 8:15,15.9,63,15.8,14.5
 2004/04/02, 8:30,16.4,63,15.9,14.5
 2004/04/02, 8:45,17.9,61,16.2,14.5
 2004/04/02, 9:00,18.5,63,16.2,14.1
 2004/04/02, 9:15,19,62,16.3,14.1
 2004/04/02, 9:30,19.3,60,16.4,14.1
 2004/04/02, 9:45,19.3,59,16.5,14.1
 2004/04/02,10:00,19.9,58,16.5,14.2
 2004/04/02,10:15,20.6,56,16.8,14.2
 2004/04/02,10:30,21.1,55,16.9,14.2
 2004/04/02,10:45,21.5,54,17,14.3
 2004/04/02,11:00,21.8,54,17.2,14.3
 2004/04/02,11:15,22.2,53,17.3,14.4
 2004/04/02,11:30,22.5,53,17.5,14.4
 2004/04/02,11:45,22.7,52,17.8,14.5
 2004/04/02,12:00,22.8,51,17.9,14.5
 2004/04/02,12:15,22.7,51,18.1,14.5
 2004/04/02,12:30,22.6,51,18.2,14.6
 2004/04/02,12:45,22.6,49,18.2,14.7
 2004/04/02,13:00,22.4,49,18.4,14.7
 2004/04/02,13:15,22.1,49,18.7,14.8
 2004/04/02,13:30,21.4,49,18.8,14.8
 2004/04/02,13:45,21,50,19,14.9
 2004/04/02,14:00,20.9,49,19.2,14.9
 2004/04/02,14:15,20.7,51,19.5,15
 2004/04/02,14:30,20.5,52,19.9,15.1
 2004/04/02,14:45,20.6,52,20.2,15.1
 2004/04/02,15:00,20.7,52,20.5,15.2
 2004/04/02,15:15,20.7,52,20.9,15.3
 2004/04/02,15:30,20.8,50,21.3,15.4
 2004/04/02,15:45,20.8,50,21.5,15.5
 2004/04/02,16:00,20.8,50,21.8,15.5
 2004/04/02,16:15,20.8,50,22.1,15.6
 2004/04/02,16:30,20.7,49,22.3,15.7
 2004/04/02,16:45,20.5,49,22.4,15.8
 2004/04/02,17:00,20.4,49,22.2,15.9
 2004/04/02,17:15,20.1,49,21.7,16
 2004/04/02,17:30,20,49,21.3,16
 2004/04/02,17:45,19.8,49,20.9,16.1
 2004/04/02,18:00,19.6,49,20.6,16.2
 2004/04/02,18:15,19.4,50,20.3,16.3
 2004/04/02,18:30,19.3,51,20,16.4
 2004/04/02,18:45,19.1,51,19.7,16.5
 2004/04/02,19:00,19,51,19.5,16.5
 2004/04/02,19:15,19,52,19.2,16.6
 2004/04/02,19:30,18.9,53,19,16.7
 2004/04/02,19:45,18.9,52,19,16.7
 2004/04/02,20:00,18.7,53,18.8,16.8
 2004/04/02,20:15,18.7,55,18.6,16.8
 2004/04/02,20:30,18.6,56,18.5,16.9
 2004/04/02,20:45,18.5,55,18.3,16.9
 2004/04/02,21:00,18.5,56,18.2,17
 2004/04/02,21:15,18.6,58,18,17
 2004/04/02,21:30,19.3,56,17.7,17.1
 2004/04/02,21:45,19.4,55,17.5,17.1
 2004/04/02,22:00,19.6,55,17.4,17.2
 2004/04/02,22:15,19.6,54,17.4,17.2
 2004/04/02,22:30,19.7,54,17.3,17.2
 2004/04/02,22:45,19.6,54,17.2,17.3
 2004/04/02,23:00,19.8,55,16.9,17.3
 2004/04/02,23:15,19.8,55,16.8,17.3
 2004/04/02,23:30,19.9,56,16.7,17.3
 2004/04/02,23:45,19.8,54,16.6,17.3
 2004/04/03, 0:00,20,57,16.7,17.3
 2004/04/03, 0:15,20.2,59,16.5,17.3
 2004/04/03, 0:30,19.9,56,16.4,17.3
 2004/04/03, 0:45,19.9,56,16.4,17.4
 2004/04/03, 1:00,19.8,59,16.3,17.3
 2004/04/03, 1:15,19.6,59,16.3,17.3
 2004/04/03, 1:30,19.6,60,16.3,17.3
 2004/04/03, 1:45,19.4,59,16.1,17.3
 2004/04/03, 2:00,19.3,58,16,17.3
 2004/04/03, 2:15,19.2,58,15.9,17.3
 2004/04/03, 2:30,19.1,58,15.9,17.2
 2004/04/03, 2:45,19,58,15.8,17.2
 2004/04/03, 3:00,18.9,57,15.7,17.2
 2004/04/03, 3:15,18.8,57,15.6,17.1
 2004/04/03, 3:30,18.6,57,15.5,17.1
 2004/04/03, 3:45,18,54,15.4,17.1
 2004/04/03, 4:00,17.6,53,15.5,17
 2004/04/03, 4:15,17.1,53,15.4,17
 2004/04/03, 4:30,16.8,53,15.4,16.9
 2004/04/03, 4:45,16.5,52,15.2,16.9
 2004/04/03, 5:00,16.3,52,15.2,16.8
 2004/04/03, 5:15,16.1,53,15.1,16.8
 2004/04/03, 5:30,15.8,53,14.9,16.7
 2004/04/03, 5:45,15.8,53,14.8,16.7
 2004/04/03, 6:00,15.5,53,14.8,16.6
 2004/04/03, 6:15,15.3,53,14.7,16.6
 2004/04/03, 6:30,15.2,54,14.6,16.5
 2004/04/03, 6:45,15.1,54,14.6,16.5
 2004/04/03, 7:00,15,55,14.6,16.4
 2004/04/03, 7:15,14.9,55,14.6,16.4
 2004/04/03, 7:30,15,55,14.7,16.3
 2004/04/03, 7:45,14.9,55,14.6,16.3
 2004/04/03, 8:00,14.9,56,14.7,16.2
 2004/04/03, 8:15,15,56,14.7,16.2
 2004/04/03, 8:30,16.4,57,14.8,16.2
 2004/04/03, 8:45,17.5,58,15,16.1
 2004/04/03, 9:00,18.2,58,15,14.1
 2004/04/03, 9:15,18.7,53,15.1,14.1
 2004/04/03, 9:30,19.1,53,15.4,14.1
 2004/04/03, 9:45,19.6,52,15.6,14.1
 2004/04/03,10:00,20,51,15.6,14.2
 2004/04/03,10:15,20.5,50,15.8,14.2
 2004/04/03,10:30,20.8,49,15.8,14.2
 2004/04/03,10:45,21,49,16.1,14.3
 2004/04/03,11:00,21.1,48,16.2,14.3
 2004/04/03,11:15,21.3,47,16.3,14.3
 2004/04/03,11:30,21.2,46,16.5,14.4
 2004/04/03,11:45,21.2,46,16.6,14.4
 2004/04/03,12:00,21.2,46,17,14.4
 2004/04/03,12:15,21.3,46,17.2,14.5
 2004/04/03,12:30,21.1,45,17.3,14.5
 2004/04/03,12:45,21,45,17.5,14.5
 2004/04/03,13:00,21,45,17.7,14.6
 2004/04/03,13:15,21,46,17.9,14.6
 2004/04/03,13:30,20.5,46,18.3,14.7
 2004/04/03,13:45,20.1,47,18.6,14.7
 2004/04/03,14:00,20,48,18.8,14.8
 2004/04/03,14:15,20,49,19,14.8
 2004/04/03,14:30,20,49,19.1,14.9
 2004/04/03,14:45,19.7,49,18.8,14.9
 2004/04/03,15:00,19.2,44,18.6,15
 2004/04/03,15:15,19.6,49,18.6,15.1
 2004/04/03,15:30,19.7,50,18.3,15.1
 2004/04/03,15:45,19.8,51,18.2,15.2
 2004/04/03,16:00,19.9,52,18,15.3
 2004/04/03,16:15,19.9,52,18,15.4
 2004/04/03,16:30,20.1,52,17.9,15.4
 2004/04/03,16:45,20,52,17.8,15.5
 2004/04/03,17:00,19.9,49,17.8,15.6
 2004/04/03,17:15,19.7,51,17.7,15.6
 2004/04/03,17:30,19.5,54,17.6,15.7
 2004/04/03,17:45,19.3,55,17.5,15.8
 2004/04/03,18:00,19.1,54,17.6,15.8
 2004/04/03,18:15,18.9,54,17.4,15.9
 2004/04/03,18:30,18.6,53,17.3,15.9
 2004/04/03,18:45,18.5,54,17.3,14.8
 2004/04/03,19:00,18.5,55,17.2,14.8
 2004/04/03,19:15,18.6,60,17.2,14.9
 2004/04/03,19:30,18.6,61,17.1,14.9
 2004/04/03,19:45,18.6,63,17,15
 2004/04/03,20:00,18.6,63,16.8,15
 2004/04/03,20:15,18.5,64,16.7,15.1
 2004/04/03,20:30,18.3,58,16.7,15.1
 2004/04/03,20:45,18.7,60,16.9,15.2
 2004/04/03,21:00,19.1,59,16.6,15.3
 2004/04/03,21:15,19.2,59,16.5,15.3
 2004/04/03,21:30,19.3,59,16.4,15.4
 2004/04/03,21:45,19.4,59,16.3,15.4
 2004/04/03,22:00,19.4,59,16.3,15.4
 2004/04/03,22:15,19.6,58,16.2,15.5
 2004/04/03,22:30,19.7,58,16.1,15.5
 2004/04/03,22:45,19.6,58,16.1,15.5
 2004/04/03,23:00,19.9,58,16.1,15.6
 2004/04/03,23:15,19.8,59,15.9,15.6
 2004/04/03,23:30,19.9,59,15.9,15.6
 2004/04/03,23:45,19.9,59,15.8,15.7
 2004/04/04, 0:00,19.9,59,15.7,15.7
 2004/04/04, 0:15,19.9,58,15.7,15.7
 2004/04/04, 0:30,19.7,58,15.7,15.7
 2004/04/04, 0:45,19.6,58,15.6,15.7
 2004/04/04, 1:00,19.4,59,15.5,15.7
 2004/04/04, 1:15,19.3,59,15.3,15.7
 2004/04/04, 1:30,19.4,59,15.4,15.7
 2004/04/04, 1:45,19.2,59,15.1,15.7
 2004/04/04, 2:00,19.1,59,15,15.7
 2004/04/04, 2:15,19.2,60,15,15.7
 2004/04/04, 2:30,19,61,14.9,15.7
 2004/04/04, 2:45,18.9,61,14.9,15.7
 2004/04/04, 3:00,18.2,58,14.8,15.7
 2004/04/04, 3:15,17.6,58,14.8,15.7
 2004/04/04, 3:30,17.2,57,14.8,15.7
 2004/04/04, 3:45,17,58,14.7,15.7
 2004/04/04, 4:00,17,59,14.6,15.7
 2004/04/04, 4:15,17.1,59,14.6,15.6
 2004/04/04, 4:30,17,61,14.4,15.6
 2004/04/04, 4:45,16.9,61,14.4,15.6
 2004/04/04, 5:00,16.6,60,14.3,15.6
 2004/04/04, 5:15,16.2,58,14.2,15.5
 2004/04/04, 5:30,15.9,57,14.4,15.5
 2004/04/04, 5:45,15.6,57,14.2,15.5
 2004/04/04, 6:00,15.5,57,14.3,15.4
 2004/04/04, 6:15,15.2,58,14.1,15.4
 2004/04/04, 6:30,15.1,58,14.2,15.4
 2004/04/04, 6:45,15,58,14.1,15.4
 2004/04/04, 7:00,14.8,59,14,15.3
 2004/04/04, 7:15,14.6,59,13.9,15.3
 2004/04/04, 7:30,14.6,59,13.8,15.3
 2004/04/04, 7:45,14.5,59,13.9,15.2
 2004/04/04, 8:00,14.3,60,13.8,15.2
 2004/04/04, 8:15,14.2,60,13.8,13.7
 2004/04/04, 8:30,14.2,60,13.8,13.6
 2004/04/04, 8:45,14.1,60,13.6,13.7
 2004/04/04, 9:00,13.9,61,13.6,13.7
 2004/04/04, 9:15,13.9,61,13.6,13.7
 2004/04/04, 9:30,13.9,61,13.6,13.7
 2004/04/04, 9:45,13.7,61,13.5,13.7
 2004/04/04,10:00,13.8,61,13.5,13.7
 2004/04/04,10:15,13.7,61,13.4,13.7
 2004/04/04,10:30,13.6,61,13.4,13.7
 2004/04/04,10:45,13.5,61,13.3,13.7
 2004/04/04,11:00,13.4,61,13.3,13.7
 2004/04/04,11:15,14.2,63,13.3,13.3
 2004/04/04,11:30,15.1,65,13.3,13.3
 2004/04/04,11:45,16.1,66,13.3,13.3
 2004/04/04,12:00,16.8,66,13.3,13.3
 2004/04/04,12:15,17,65,13.5,13.3
 2004/04/04,12:30,17.5,63,13.4,13.3
 2004/04/04,12:45,17.5,63,13.5,13.3
 2004/04/04,13:00,17.7,63,13.5,13.3
 2004/04/04,13:15,18,62,13.4,13.3
 2004/04/04,13:30,17.9,62,13.4,13.3
 2004/04/04,13:45,18.2,62,13.5,13.3
 2004/04/04,14:00,18,62,13.5,13.3
 2004/04/04,14:15,17.9,64,13.5,13.5
 2004/04/04,14:30,17.8,65,13.4,13.5
 2004/04/04,14:45,17.9,70,13.4,13.5
 2004/04/04,15:00,18,68,13.5,13.6
 2004/04/04,15:15,18,68,13.5,13.5
 2004/04/04,15:30,18.2,69,13.6,13.6
 2004/04/04,15:45,18.3,67,13.9,13.6
 2004/04/04,16:00,17.1,59,13.7,13.6
 2004/04/04,16:15,16.4,58,13.9,13.6
 2004/04/04,16:30,15.9,58,13.8,13.6
 2004/04/04,16:45,15.3,59,13.7,13.6
 2004/04/04,17:00,15,59,13.9,13.6
 2004/04/04,17:15,14.8,60,13.9,13.6
 2004/04/04,17:30,14.5,60,14,13.6
 2004/04/04,17:45,14.5,61,14,13.1
 2004/04/04,18:00,15.2,64,13.9,13
 2004/04/04,18:15,15.8,64,13.5,13
 2004/04/04,18:30,16.3,64,13.3,13.1
 2004/04/04,18:45,16.9,64,13.3,13.1
 2004/04/04,19:00,17.1,64,13.2,13.1
 2004/04/04,19:15,17.3,64,13,13.1
 2004/04/04,19:30,17.4,65,13,13.1
 2004/04/04,19:45,17.6,63,12.8,13.1
 2004/04/04,20:00,17.6,62,12.7,13.1
 2004/04/04,20:15,17.8,62,12.7,13.1
 2004/04/04,20:30,17.8,61,12.5,13.1
 2004/04/04,20:45,18.1,60,12.5,13.1
 2004/04/04,21:00,17.8,61,12.6,13.1
 2004/04/04,21:15,18,59,12.4,13.1
 2004/04/04,21:30,18.1,59,12.3,13.1
 2004/04/04,21:45,18.1,59,12.2,13.1
 2004/04/04,22:00,18.1,58,12.3,13
 2004/04/04,22:15,18.2,58,12.1,13
 2004/04/04,22:30,18,58,12.1,13
 2004/04/04,22:45,17.9,58,12,13
 2004/04/04,23:00,18.1,58,11.9,13
 2004/04/04,23:15,17.9,59,11.9,12.9
 2004/04/04,23:30,18,59,12,12.9
 2004/04/04,23:45,17.8,61,11.9,12.9
 2004/04/05, 0:00,18,61,11.9,13.4
 2004/04/05, 0:15,18,64,11.8,13.4
 2004/04/05, 0:30,18.2,63,11.7,13.3
 2004/04/05, 0:45,18.1,62,11.7,13.3
 2004/04/05, 1:00,18.1,62,11.7,13.2
 2004/04/05, 1:15,17.9,61,11.6,13.2
 2004/04/05, 1:30,17.8,62,11.7,13.2
 2004/04/05, 1:45,17.6,59,11.6,13.1
 2004/04/05, 2:00,17.6,62,11.7,13.1
 2004/04/05, 2:15,17.5,63,11.6,13
 2004/04/05, 2:30,16.8,62,11.7,13
 2004/04/05, 2:45,16.4,62,11.6,13
 2004/04/05, 3:00,16.1,61,11.6,12.9
 2004/04/05, 3:15,15.7,62,11.5,12.9
 2004/04/05, 3:30,15.4,61,11.4,12.8
 2004/04/05, 3:45,15.1,61,11.4,12.8
 2004/04/05, 4:00,14.8,62,11.3,12.7
 2004/04/05, 4:15,14.6,62,11.2,12.7
 2004/04/05, 4:30,15.5,66,11.2,12.7
 2004/04/05, 4:45,16.2,65,11.2,12.6
 2004/04/05, 5:00,15.6,59,11.2,12.6
 2004/04/05, 5:15,14.5,60,11.3,12.5
 2004/04/05, 5:30,14.1,60,11.4,12.5
 2004/04/05, 5:45,13.6,59,11.3,12.4
 2004/04/05, 6:00,13.2,60,11.3,12.4
 2004/04/05, 6:15,13,60,11.3,12.4
 2004/04/05, 6:30,12.7,61,11.3,12.3
 2004/04/05, 6:45,12.7,61,11.3,12.3
 2004/04/05, 7:00,12.5,62,11.3,12.3
 2004/04/05, 7:15,12.4,62,11.4,12.2
 2004/04/05, 7:30,12.3,63,11.3,12.2
 2004/04/05, 7:45,12.3,63,11.4,12.2
 2004/04/05, 8:00,12.3,63,11.5,12.1
 2004/04/05, 8:15,12.4,62,11.6,12.1
 2004/04/05, 8:30,12.4,63,11.7,12.1
 2004/04/05, 8:45,12.6,63,11.8,12.1
 2004/04/05, 9:00,14,63,12,12.1
 2004/04/05, 9:15,15.6,61,11.9,11.9
 2004/04/05, 9:30,16.9,62,12,11.9
 2004/04/05, 9:45,17.8,60,12.3,11.9
 2004/04/05,10:00,18.5,60,12.5,11.9
 2004/04/05,10:15,19,58,12.7,11.9
 2004/04/05,10:30,19.2,56,12.9,11.9
 2004/04/05,10:45,19.3,54,13,12
 2004/04/05,11:00,17.6,41,13.4,12
 2004/04/05,11:15,17.7,49,13.7,12.1
 2004/04/05,11:30,17.7,51,13.8,12.3
 2004/04/05,11:45,18.5,53,13.9,12.3
 2004/04/05,12:00,19.2,53,14,12.4
 2004/04/05,12:15,19.4,53,14.2,12.4
 2004/04/05,12:30,19.3,50,14.2,12.4
 2004/04/05,12:45,19.7,51,14.4,12.4
 2004/04/05,13:00,19.9,52,14.7,12.5
 2004/04/05,13:15,20.1,52,15.1,12.5
 2004/04/05,13:30,20.4,51,15.5,12.6
 2004/04/05,13:45,20.6,52,15.9,12.6
 2004/04/05,14:00,20.8,53,16.3,12.7
 2004/04/05,14:15,20.8,52,17,12.7
 2004/04/05,14:30,20.7,53,17.4,12.8
 2004/04/05,14:45,20.9,55,17.9,12.8
 2004/04/05,15:00,21.2,58,18.3,12.9
 2004/04/05,15:15,21.2,56,18.8,12.9
 2004/04/05,15:30,20.9,54,19.2,13
 2004/04/05,15:45,20.5,50,19.8,13.1
 2004/04/05,16:00,20.1,53,20.4,13.2
 2004/04/05,16:15,19.8,53,20.8,13.2
 2004/04/05,16:30,19.6,54,21.1,14.2
 2004/04/05,16:45,19.4,49,21.3,14.3
 2004/04/05,17:00,19.4,52,21.2,14.3
 2004/04/05,17:15,19.2,48,20.5,14.4
 2004/04/05,17:30,18.7,48,20,14.4
 2004/04/05,17:45,18.6,50,19.4,14.5
 2004/04/05,18:00,18.5,52,18.9,14.5
 2004/04/05,18:15,18.3,53,18.5,14.6
 2004/04/05,18:30,18.2,52,18.1,14.7
 2004/04/05,18:45,18.1,53,17.7,14.7
 2004/04/05,19:00,18.1,54,17.5,14.8
 2004/04/05,19:15,18,56,17.2,14.9
 2004/04/05,19:30,17.9,57,17,14.9
 2004/04/05,19:45,17.9,61,16.7,15
 2004/04/05,20:00,17.8,61,16.5,15
 2004/04/05,20:15,17.8,62,16.4,15.1
 2004/04/05,20:30,18.1,64,16.2,15.1
 2004/04/05,20:45,18.5,63,16.2,15.2
 2004/04/05,21:00,18.6,63,15.9,15.3
 2004/04/05,21:15,18.5,62,15.9,15.3
 2004/04/05,21:30,18.7,62,15.7,15.4
 2004/04/05,21:45,18.7,61,15.7,15.4
 2004/04/05,22:00,18.8,60,15.4,15.4
 2004/04/05,22:15,18.7,60,15.3,15.5
 2004/04/05,22:30,18.7,60,15.3,15.5
 2004/04/05,22:45,18.6,60,15.2,15.5
 2004/04/05,23:00,18.5,63,15,15.5
 2004/04/05,23:15,18.6,64,15,15.6
 2004/04/05,23:30,18.6,64,14.9,15.6
 2004/04/05,23:45,18.6,62,14.8,15.6
 2004/04/06, 0:00,18.4,62,14.8,15.6
 2004/04/06, 0:15,18,59,14.7,15.6
 2004/04/06, 0:30,17.5,57,14.9,15.6
 2004/04/06, 0:45,17.1,57,14.7,15.6
 2004/04/06, 1:00,16.9,58,14.4,15.5
 2004/04/06, 1:15,16.6,57,14.3,15.5
 2004/04/06, 1:30,16.4,59,14.2,15.5
 2004/04/06, 1:45,16.2,62,14.2,15.5
 2004/04/06, 2:00,16,64,13.9,15.5
 2004/04/06, 2:15,15.8,63,13.9,15.4
 2004/04/06, 2:30,15.7,65,13.7,15.4
 2004/04/06, 2:45,15.6,68,13.7,15.3
 2004/04/06, 3:00,15.4,66,13.5,15.3
 2004/04/06, 3:15,14.9,64,13.5,15.3
 2004/04/06, 3:30,14.7,62,13.6,15.2
 2004/04/06, 3:45,14.3,62,13.6,15.2
 2004/04/06, 4:00,14.2,62,13.5,15.1
 2004/04/06, 4:15,13.9,62,13.5,15.1
 2004/04/06, 4:30,13.8,62,13.3,15
 2004/04/06, 4:45,13.5,62,13.3,15
 2004/04/06, 5:00,13.4,62,13.2,14.9
 2004/04/06, 5:15,13.3,62,13,14.9
 2004/04/06, 5:30,13,62,12.9,14.8
 2004/04/06, 5:45,12.9,62,12.8,14.8
 2004/04/06, 6:00,12.8,62,12.9,14.7
 2004/04/06, 6:15,12.8,62,12.7,14.7
 2004/04/06, 6:30,12.5,62,12.7,13.2
 2004/04/06, 6:45,12.5,64,12.7,13.2
 2004/04/06, 7:00,12.6,69,12.7,13.2
 2004/04/06, 7:15,12.6,71,12.7,13.1
 2004/04/06, 7:30,12.6,71,12.8,13.1
 2004/04/06, 7:45,12.6,72,12.9,13.1
 2004/04/06, 8:00,12.8,70,12.8,13.1
 2004/04/06, 8:15,12.8,70,13,13.1
 2004/04/06, 8:30,13.4,65,13,13.1
 2004/04/06, 8:45,14.8,61,13,13.1
 2004/04/06, 9:00,16.1,59,13.2,13.1
 2004/04/06, 9:15,16.7,58,13.3,13.1
 2004/04/06, 9:30,17.8,58,13.5,13.3
 2004/04/06, 9:45,18.5,59,13.8,13.3
 2004/04/06,10:00,19,57,14.1,13.3
 2004/04/06,10:15,18.8,54,14.5,13.4
 2004/04/06,10:30,17.9,53,15,13.4
 2004/04/06,10:45,17.7,54,15.7,13.4
 2004/04/06,11:00,17.7,54,16.1,13.6
 2004/04/06,11:15,17.7,54,16.4,13.6
 2004/04/06,11:30,18,51,16.6,13.6
 2004/04/06,11:45,18.1,53,17,13.7
 2004/04/06,12:00,18.4,53,17.4,13.7
 2004/04/06,12:15,18.5,52,17.5,13.7
 2004/04/06,12:30,18.6,53,17.8,13.8
 2004/04/06,12:45,18.7,53,18.1,13.8
 2004/04/06,13:00,18.9,52,18.2,13.9
 2004/04/06,13:15,19,52,18.7,13.9
 2004/04/06,13:30,19.1,52,19.1,14
 2004/04/06,13:45,19.5,49,19.1,14.1
 2004/04/06,14:00,20.1,50,19.4,14.1
 2004/04/06,14:15,20.6,51,19.6,14.2
 2004/04/06,14:30,20.9,50,19.9,14.2
 2004/04/06,14:45,21.2,49,20.2,14.3
 2004/04/06,15:00,21.4,49,20.5,14.4
 2004/04/06,15:15,21.7,48,20.8,14.5
 2004/04/06,15:30,21.8,49,21.2,14.5
 2004/04/06,15:45,22.2,49,21.5,14.6
 2004/04/06,16:00,22.2,50,21.8,14.7
 2004/04/06,16:15,22,50,22.1,14.8
 2004/04/06,16:30,21.8,50,22.1,14.9
 2004/04/06,16:45,21.2,45,22.4,14.9
 2004/04/06,17:00,20.8,44,22.4,15.1
 2004/04/06,17:15,20.5,46,21.8,15.2
 2004/04/06,17:30,20.1,47,21.3,15.3
 2004/04/06,17:45,19.8,49,20.8,15.4
 2004/04/06,18:00,19.6,51,20.5,15.5
 2004/04/06,18:15,19.5,50,20.1,15.6
 2004/04/06,18:30,19.4,52,19.9,15.7
 2004/04/06,18:45,19.2,53,19.6,15.8
 2004/04/06,19:00,19.1,54,19.4,15.9
 2004/04/06,19:15,19.1,54,19.3,16
 2004/04/06,19:30,18.9,55,19.2,16.1
 2004/04/06,19:45,18.9,55,19,16.2
 2004/04/06,20:00,18.8,55,18.9,16.3
 2004/04/06,20:15,18.8,56,18.8,16.3
 2004/04/06,20:30,18.6,57,18.7,16.4
 2004/04/06,20:45,18.7,57,18.5,16.5
 2004/04/06,21:00,18.5,57,18.5,16.6
 2004/04/06,21:15,18.5,59,18.4,16.6
 2004/04/06,21:30,18.3,59,18.2,16.7
 2004/04/06,21:45,18.4,59,18.1,16.7
 2004/04/06,22:00,18.3,59,18,16.8
 2004/04/06,22:15,18.3,60,17.8,16.9
 2004/04/06,22:30,18.3,60,17.8,16.9
 2004/04/06,22:45,18.3,61,17.5,16.9
 2004/04/06,23:00,18.4,60,17.5,17
 2004/04/06,23:15,18.2,61,17.3,17
 2004/04/06,23:30,18.3,65,17.2,17.1
 2004/04/06,23:45,18.3,65,17,17.1
 2004/04/07, 0:00,18.2,65,16.9,17.1
 2004/04/07, 0:15,18.2,63,16.9,17.1
 2004/04/07, 0:30,18,64,16.9,15
 2004/04/07, 0:45,18.2,65,16.8,15
 2004/04/07, 1:00,18.5,64,16.6,15
 2004/04/07, 1:15,18.7,64,16.5,15.1
 2004/04/07, 1:30,18.9,64,16.5,15.1
 2004/04/07, 1:45,18.9,63,16.4,15.2
 2004/04/07, 2:00,19,63,16.3,15.3
 2004/04/07, 2:15,19,63,16.3,15.3
 2004/04/07, 2:30,19,62,16.3,15.3
 2004/04/07, 2:45,19,62,16.1,15.4
 2004/04/07, 3:00,19,62,16.1,15.4
 2004/04/07, 3:15,19,62,16.1,15.4
 2004/04/07, 3:30,18.9,63,16,15.5
 2004/04/07, 3:45,18.5,60,16,15.5
 2004/04/07, 4:00,17.9,61,16,15.5
 2004/04/07, 4:15,17.5,60,16,15.5
 2004/04/07, 4:30,17.3,60,16,15.5
 2004/04/07, 4:45,17,60,15.9,15.6
 2004/04/07, 5:00,16.8,60,15.8,15.6
 2004/04/07, 5:15,16.6,60,15.7,15.6
 2004/04/07, 5:30,16.4,61,15.6,15.6
 2004/04/07, 5:45,16.2,61,15.6,15.6
 2004/04/07, 6:00,16.2,61,15.6,15.6
 2004/04/07, 6:15,16,61,15.4,15.6
 2004/04/07, 6:30,15.9,62,15.4,15.6
 2004/04/07, 6:45,15.8,62,15.4,15.6
 2004/04/07, 7:00,15.7,62,15.4,15.6
 2004/04/07, 7:15,15.7,63,15.5,15.6
 2004/04/07, 7:30,15.7,63,15.7,15.6
 2004/04/07, 7:45,15.6,63,15.6,15.6
 2004/04/07, 8:00,15.6,63,15.8,15.6
 2004/04/07, 8:15,15.7,62,15.8,15.6
 2004/04/07, 8:30,15.8,62,15.9,15.7
 2004/04/07, 8:45,15.7,62,15.9,15.7
 2004/04/07, 9:00,16,61,16,15.7
 2004/04/07, 9:15,17,61,16.1,14.3
 2004/04/07, 9:30,17.8,60,16.2,14.3
 2004/04/07, 9:45,18.6,58,16.4,14.3
 2004/04/07,10:00,19.2,57,16.6,14.4
 2004/04/07,10:15,19.3,56,16.7,14.4
 2004/04/07,10:30,19.7,56,17,14.4
 2004/04/07,10:45,20.3,59,17.3,14.5
 2004/04/07,11:00,20.8,60,17.4,14.5
 2004/04/07,11:15,21.1,58,17.4,14.5
 2004/04/07,11:30,21.4,56,17.6,14.6
 2004/04/07,11:45,21.8,55,17.8,14.6
 2004/04/07,12:00,21.6,53,18.1,14.7
 2004/04/07,12:15,21.6,54,18.3,14.5
 2004/04/07,12:30,21.7,53,18.6,14.5
 2004/04/07,12:45,21.7,53,18.8,14.5
 2004/04/07,13:00,21.8,53,19,14.6
 2004/04/07,13:15,21.9,54,19.3,14.6
 2004/04/07,13:30,21.9,53,19.8,14.7
 2004/04/07,13:45,21.6,40,20.6,14.8
 2004/04/07,14:00,21.6,40,21,14.8
 2004/04/07,14:15,22.2,39,21.3,14.9
 2004/04/07,14:30,21.7,33,21.6,15
 2004/04/07,14:45,21.7,34,21.9,15.1
 2004/04/07,15:00,21.5,38,21.8,15.2
 2004/04/07,15:15,21.5,39,22.1,15.3
 2004/04/07,15:30,21.7,44,22.3,15.4
 2004/04/07,15:45,21.6,45,22.4,15.5
 2004/04/07,16:00,21.4,48,22.6,15.6
 2004/04/07,16:15,21.3,49,22.5,15.7
 2004/04/07,16:30,21,50,22.3,15.8
 2004/04/07,16:45,21,50,21.9,15.9
 2004/04/07,17:00,21,51,21.7,16
 2004/04/07,17:15,20.9,52,21.4,16.1
 2004/04/07,17:30,20.7,53,21.3,16.2
 2004/04/07,17:45,20.8,53,21.1,16.3
 2004/04/07,18:00,20.6,53,20.9,16.5
 2004/04/07,18:15,20.6,54,20.8,16.6
 2004/04/07,18:30,20.5,55,20.7,16.7
 2004/04/07,18:45,20.5,56,20.7,16.8
 2004/04/07,19:00,20.4,56,20.5,16.9
 2004/04/07,19:15,20.4,57,20.6,17
 2004/04/07,19:30,20.2,57,20.4,17
 2004/04/07,19:45,20.3,57,20.3,17.1
 2004/04/07,20:00,20.5,58,20.2,17.2